Location: Sungai Bunut
(2.6333°N, 113.7333°E)
Time: 09:00:19
(UTC+00:00)

Transit 2A Rocket - Pass Details

Date: 12 December 2023
Orbit: 590 x 905 km, 66.7° (Epoch: 01 March)

Event Time Altitude Azimuth Distance (km) Brightness Sun altitude
Rises 11:28:46 0° 237° (WSW) 3,256 9.9 -17.1°
Reaches altitude 10° 11:32:49 10° 266° (W) 2,242 8.5 -18.1°
Maximum altitude 11:34:47 12° 289° (WNW) 2,052 7.9 -18.5°
Drops below altitude 10° 11:36:42 10° 312° (NW) 2,157 7.6 -19.0°
Sets 11:40:26 0° 343° (NNW) 2,992 8.0 -19.8°
